Latest Coastal Weather Observations for Point Perpendicular

IDN60701

Issued at 8:31 pm EDT Thursday 23 February 2017 (issued every 10 minutes, with the page automatically refreshed every 10 minutes)

About coastal observations | Map of coastal stations | Coastal observations for NSW | Marine services | Other Formats
Station Details ID: 068151 Name: POINT PERPENDICULAR AWS Lat: -35.09 Lon: 150.80 Height: 85.0 m
Data from the previous 72 hours. | See also: Recent months at Point Perpendicular
Date/Time
EDT
Temp
°C
Wind Pressure Rain since
9am
mm
Weather Cloud Vis
km
Sea
Height
m
Swell
Dir  Spd
kts
Gust
kts
hPa Trend Height
m
Period
s
Dir
23/08:30pm 23.0 NNE 18 26 1016.2 - 0.0 - - - - - - -
23/08:01pm 22.8 N 17 27 1016.0 - 0.0 - - - - - - -
23/08:00pm 22.8 N 17 23 1015.9 - 0.0 - - - - - - -
23/07:49pm 23.0 NNE 17 27 1015.7 - 0.0 - - - - - - -
23/07:30pm 23.1 NNE 16 22 1015.6 - 0.0 - - - - - - -
23/07:00pm 23.8 NNE 16 22 1015.4 - 0.0 - - - - - - -
23/06:30pm 24.7 NNE 18 25 1015.3 - 0.0 - - - - - - -
23/06:00pm 24.8 NNE 19 28 1015.1 - 0.0 - - - - - - -
23/05:44pm 25.1 NNE 18 28 1015.0 - 0.0 - - - - - - -
23/05:30pm 25.3 NNE 20 27 1014.9 - 0.0 - - - - - - -
23/05:00pm 25.4 NNE 20 28 1015.0 - 0.0 - - - - - - -
23/04:30pm 25.6 NNE 20 28 1015.0 - 0.0 - - - - - - -
23/04:05pm 26.1 NNE 17 27 1015.1 - 0.0 - - - - - - -
23/04:00pm 26.0 NNE 19 27 1015.2 - 0.0 - - - - - - -
23/03:33pm 25.9 NNE 17 27 1015.5 - 0.0 - - - - - - -
23/03:30pm 26.0 NNE 18 27 1015.5 - 0.0 - - - - - - -
23/03:09pm 26.4 NNE 18 28 1015.5 - 0.0 - - - - - - -
23/03:00pm 26.0 NNE 20 28 1015.6 - 0.0 - - - - - - -
23/02:30pm 25.9 NNE 20 27 1015.8 - 0.0 - - - - - - -
23/02:00pm 26.1 NNE 21 28 1016.1 - 0.0 - - - - - - -
23/01:30pm 26.4 NNE 19 25 1016.5 - 0.0 - - - - - - -
23/01:00pm 26.6 NNE 18 25 1016.8 - 0.0 - - - - - - -
23/12:30pm 26.4 NNE 19 25 1017.2 - 0.0 - - - - - - -
23/12:00pm 25.9 NNE 15 23 1017.5 - 0.0 - - - - - - -
23/11:30am 25.5 NNE 14 23 1017.7 - 0.0 - - - - - - -
23/11:00am 24.8 NNE 18 23 1018.1 - 0.0 - - - - - - -
23/10:30am 24.3 N 18 26 1018.4 - 0.0 - - - - - - -
23/10:00am 23.7 NNE 18 26 1018.1 - 0.0 - - - - - - -
23/09:41am 23.3 NNE 17 27 1018.1 - 0.0 - - - - - - -
23/09:30am 23.1 NNE 18 25 1017.9 - 0.0 - - - - - - -
23/09:00am 22.6 N 19 25 1017.9 - 0.0 - - - - - - -
23/08:30am 21.8 N 18 26 1017.6 - 0.0 - - - - - - -
23/08:00am 21.2 N 17 25 1017.6 - 0.0 - - - - - - -
23/07:30am 20.6 N 17 22 1017.5 - 0.0 - - - - - - -
23/07:00am 20.1 N 17 24 1017.1 - 0.0 - - - - - - -
23/06:30am 20.2 NNE 16 23 1016.8 - 0.0 - - - - - - -
23/06:00am 20.3 N 16 22 1016.5 - 0.0 - - - - - - -
23/05:30am 20.3 NNE 17 25 1016.4 - 0.0 - - - - - - -
23/05:09am 20.3 NNE 16 26 1016.3 - 0.0 - - - - - - -
23/05:00am 20.4 NNE 17 24 1016.3 - 0.0 - - - - - - -
23/04:30am 20.6 NNE 17 22 1016.5 - 0.0 - - - - - - -
23/04:00am 20.7 NNE 17 25 1016.6 - 0.0 - - - - - - -
23/03:30am 20.9 N 18 26 1016.9 - 0.0 - - - - - - -
23/03:00am 21.0 N 17 27 1016.9 - 0.0 - - - - - - -
23/02:31am 21.1 N 17 27 1017.1 - 0.0 - - - - - - -
23/02:30am 21.2 N 18 27 1017.1 - 0.0 - - - - - - -
23/02:00am 21.5 N 18 27 1017.1 - 0.0 - - - - - - -
23/01:30am 21.6 N 19 26 1017.2 - 0.0 - - - - - - -
23/01:00am 21.6 N 18 28 1017.7 - 0.0 - - - - - - -
23/12:30am 21.8 N 19 29 1018.0 - 0.0 - - - - - - -
23/12:18am 21.7 N 17 27 1018.1 - 0.0 - - - - - - -
23/12:00am 21.9 N 17 25 1018.1 - 0.0 - - - - - - -
 
Date/Time
EDT
Temp
°C
Wind Pressure Rain since
9am
mm
Weather Cloud Vis
km
Sea
Height
m
Swell
Dir  Spd
kts
Gust
kts
hPa Trend Height
m
Period
s
Dir
22/11:30pm 22.0 N 17 24 1018.2 - 0.0 - - - - - - -
22/11:02pm 22.1 N 17 27 1018.0 - 0.0 - - - - - - -
22/11:00pm 22.1 N 17 25 1018.0 - 0.0 - - - - - - -
22/10:30pm 22.3 N 17 26 1017.9 - 0.0 - - - - - - -
22/10:00pm 22.5 N 18 26 1017.7 - 0.0 - - - - - - -
22/09:31pm 22.5 N 18 28 1017.5 - 0.0 - - - - - - -
22/09:30pm 22.5 N 19 28 1017.5 - 0.0 - - - - - - -
22/09:22pm 22.4 N 18 28 1017.5 - 0.0 - - - - - - -
22/09:00pm 22.2 N 16 22 1017.3 - 0.0 - - - - - - -
22/08:30pm 22.8 NNE 16 23 1016.8 - 0.0 - - - - - - -
22/08:12pm 23.2 NNE 18 29 1016.6 - 0.0 - - - - - - -
22/08:00pm 23.2 NNE 18 25 1016.4 - 0.0 - - - - - - -
22/07:30pm 23.3 NNE 16 23 1016.3 - 0.0 - - - - - - -
22/07:00pm 23.9 NNE 17 26 1016.1 - 0.0 - - - - - - -
22/06:30pm 24.4 NNE 17 26 1016.0 - 0.0 - - - - - - -
22/06:00pm 24.9 NNE 18 25 1016.1 - 0.0 - - - - - - -
22/05:30pm 25.3 NNE 17 25 1016.2 - 0.0 - - - - - - -
22/05:16pm 25.6 NNE 16 26 1016.2 - 0.0 - - - - - - -
22/05:00pm 26.0 NNE 16 23 1016.4 - 0.0 - - - - - - -
22/04:33pm 26.0 NNE 17 29 1016.7 - 0.0 - - - - - - -
22/04:30pm 25.9 NNE 17 24 1016.7 - 0.0 - - - - - - -
22/04:00pm 26.2 NNE 17 25 1017.1 - 0.0 - - - - - - -
22/03:35pm 26.2 NNE 18 28 1017.3 - 0.0 - - - - - - -
22/03:30pm 26.2 NNE 18 25 1017.4 - 0.0 - - - - - - -
22/03:00pm 26.3 NNE 17 24 1017.6 - 0.0 - - - - - - -
22/02:30pm 26.3 NNE 19 26 1018.0 - 0.0 - - - - - - -
22/02:00pm 26.3 NNE 19 27 1018.3 - 0.0 - - - - - - -
22/01:30pm 26.3 NNE 17 24 1018.5 - 0.0 - - - - - - -
22/01:00pm 25.9 NNE 16 24 1018.9 - 0.0 - - - - - - -
22/12:30pm 26.3 NNE 16 24 1019.1 - 0.0 - - - - - - -
22/12:00pm 26.8 NNE 15 23 1019.7 - 0.0 - - - - - - -
22/11:30am 26.2 N 16 24 1020.2 - 0.0 - - - - - - -
22/11:00am 26.0 NNE 15 23 1020.5 - 0.0 - - - - - - -
22/10:30am 25.0 N 13 20 1020.8 - 0.0 - - - - - - -
22/10:00am 25.1 N 13 19 1020.9 - 0.0 - - - - - - -
22/09:30am 23.9 N 11 15 1021.0 - 0.0 - - - - - - -
22/09:00am 22.0 NNW 6 10 1020.8 - 0.0 - - - - - - -
22/08:30am 21.3 NNW 6 10 1020.7 - 0.0 - - - - - - -
22/08:00am 20.6 NNW 5 7 1020.4 - 0.0 - - - - - - -
22/07:30am 19.7 NNW 5 6 1020.2 - 0.0 - - - - - - -
22/07:00am 18.3 N 5 7 1019.9 - 0.0 - - - - - - -
22/06:30am 18.5 N 2 4 1019.7 - 0.0 - - - - - - -
22/06:00am 18.4 NNW 2 2 1019.4 - 0.0 - - - - - - -
22/05:30am 17.9 NNW 1 1 1019.2 - 0.0 - - - - - - -
22/05:00am 18.2 NNW 1 2 1019.2 - 0.0 - - - - - - -
22/04:30am 19.1 NW 1 2 1019.2 - 0.0 - - - - - - -
22/04:00am 19.3 NW 3 3 1019.3 - 0.0 - - - - - - -
22/03:30am 19.6 NNW 5 5 1019.5 - 0.0 - - - - - - -
22/03:00am 20.1 N 4 5 1019.6 - 0.0 - - - - - - -
22/02:30am 20.5 N 5 6 1019.7 - 0.0 - - - - - - -
22/02:00am 21.2 N 5 6 1020.0 - 0.0 - - - - - - -
22/01:30am 21.5 N 6 9 1020.2 - 0.0 - - - - - - -
22/01:00am 21.9 NNE 9 13 1020.5 - 0.0 - - - - - - -
22/12:30am 21.9 NE 8 12 1020.8 - 0.0 - - - - - - -
22/12:00am 21.9 NNE 7 11 1021.0 - 0.0 - - - - - - -
 
Date/Time
EDT
Temp
°C
Wind Pressure Rain since
9am
mm
Weather Cloud Vis
km
Sea
Height
m
Swell
Dir  Spd
kts
Gust
kts
hPa Trend Height
m
Period
s
Dir
21/11:30pm 21.8 NNE 7 11 1021.0 - 0.0 - - - - - - -
21/11:00pm 21.9 NNE 7 11 1021.2 - 0.0 - - - - - - -
21/10:30pm 21.8 NNE 7 11 1021.3 - 0.0 - - - - - - -
21/10:00pm 22.0 NNE 6 8 1021.4 - 0.0 - - - - - - -
21/09:30pm 21.8 NE 4 6 1021.3 - 0.0 - - - - - - -
21/09:00pm 21.2 NE 4 5 1021.0 - 0.0 - - - - - - -
21/08:30pm 21.1 NNE 5 7 1020.5 - 0.0 - - - - - - -
21/08:00pm 21.5 NE 5 6 1020.3 - 0.0 - - - - - - -
21/07:30pm 21.9 NE 3 5 1020.0 - 0.0 - - - - - - -
21/07:00pm 22.9 NNE 5 8 1019.7 - 0.0 - - - - - - -
21/06:30pm 23.2 NE 7 10 1019.2 - 0.0 - - - - - - -
21/06:00pm 22.7 E 4 6 1019.1 - 0.0 - - - - - - -
21/05:30pm 21.9 SSE 10 15 1018.8 - 0.0 - - - - - - -
21/05:00pm 21.7 SE 11 17 1018.6 - 0.0 - - - - - - -
21/04:30pm 22.0 SE 10 17 1018.6 - 0.0 - - - - - - -
21/04:00pm 21.9 SE 10 16 1018.6 - 0.0 - - - - - - -
21/03:30pm 22.2 SE 10 16 1018.6 - 0.0 - - - - - - -
21/03:00pm 22.1 SE 11 18 1018.9 - 0.0 - - - - - - -
21/02:30pm 22.5 SSE 14 19 1019.1 - 0.0 - - - - - - -
21/02:00pm 22.2 S 14 20 1019.5 - 0.0 - - - - - - -
21/01:30pm 21.5 S 13 20 1019.3 - 0.0 - - - - - - -
21/01:00pm 21.6 SSW 12 18 1019.6 - 0.0 - - - - - - -
21/12:30pm 21.5 SSW 11 16 1019.9 - 0.0 - - - - - - -
21/12:00pm 21.3 SSW 15 19 1020.1 - 0.0 - - - - - - -
21/11:30am 21.5 SSW 13 18 1020.3 - 0.0 - - - - - - -
21/11:00am 20.9 SSW 12 17 1020.5 - 0.0 - - - - - - -
21/10:30am 20.8 SSW 11 16 1020.6 - 0.0 - - - - - - -
21/10:00am 20.7 SSW 13 18 1020.3 - 0.0 - - - - - - -
21/09:30am 20.5 SSW 13 19 1019.9 - 0.0 - - - - - - -
21/09:00am 20.3 SSW 10 16 1019.6 - 0.0 - - - - - - -
21/08:30am 20.1 SSW 10 16 1019.0 - 0.0 - - - - - - -
21/08:00am 19.2 SW 9 14 1018.6 - 0.0 - - - - - - -
21/07:30am 19.4 SW 8 12 1018.3 - 0.0 - - - - - - -
21/07:00am 18.8 SW 6 10 1018.0 - 0.0 - - - - - - -
21/06:30am 18.6 SW 6 10 1017.6 - 0.0 - - - - - - -
21/06:00am 18.5 WSW 6 9 1017.3 - 0.0 - - - - - - -
21/05:30am 18.5 WSW 7 10 1017.1 - 0.0 - - - - - - -
21/05:00am 18.5 WSW 7 9 1017.0 - 0.0 - - - - - - -
21/04:30am 18.6 WSW 5 7 1016.7 - 0.0 - - - - - - -
21/04:00am 19.0 WSW 5 10 1016.7 - 0.0 - - - - - - -
21/03:30am 20.5 SSE 5 9 1016.5 - 0.0 - - - - - - -
21/03:00am 20.5 SSE 5 8 1016.5 - 0.0 - - - - - - -
21/02:30am 20.6 SE 5 10 1016.3 - 0.0 - - - - - - -
21/02:00am 20.6 WNW 1 5 1016.3 - 0.0 - - - - - - -
21/01:30am 20.7 WSW 1 5 1016.3 - 0.0 - - - - - - -
21/01:00am 20.8 WSW 1 2 1016.2 - 0.0 - - - - - - -
21/12:30am 19.9 W 2 3 1016.5 - 0.0 - - - - - - -
21/12:00am 19.5 W 3 7 1016.3 - 0.0 - - - - - - -
 
Date/Time
EDT
Temp
°C
Wind Pressure Rain since
9am
mm
Weather Cloud Vis
km
Sea
Height
m
Swell
Dir  Spd
kts
Gust
kts
hPa Trend Height
m
Period
s
Dir
20/11:30pm 19.5 W 3 5 1016.1 - 0.0 - - - - - - -
20/11:00pm 19.8 W 3 5 1015.8 - 0.0 - - - - - - -
20/10:30pm 20.2 W 4 7 1015.4 - 0.0 - - - - - - -
20/10:00pm 19.8 WNW 7 9 1015.2 - 0.0 - - - - - - -
20/09:30pm 21.0 WNW 4 7 1014.5 - 0.0 - - - - - - -
20/09:00pm 21.1 W 3 7 1013.8 - 0.0 - - - - - - -

Other Formats:

Comma delimited format used in spreadsheet applications
http://www.bom.gov.au/fwo/IDN60701/IDN60701.95940.axf

JavaScript Object Notation format (JSON) in row-major order
http://www.bom.gov.au/fwo/IDN60701/IDN60701.95940.json